STARLINK-36972, 68072

Orbit data source: Space-Track

STARLINK-36972, 68072 is a payload satellite owned by SpaceX/Seattle (US) in LEO that was launched on Wed, 04 Mar 2026 UTC via an FALCON 9 launch vehicle from the Air Force Eastern Test Range (AFETR). Payload-class satellites include a variety of spacecraft equipped with specific instruments for various scientific and technological missions. These include communications satellites like Starlink; space stations such as the ISS; scientific satellites like the Hubble; Earth observation satellites from companies like Planet Labs, Umbra, and HawkEye 360; GPS; miniature CubeSats for education and research; and military/defense satellites.

Loading next visibility...
Identifier
68072, 2026-042D
Orbit
LEO
Country
Flag of USUS
Related business
Manufacturer
SpaceX/Seattle
Mission
Operational Commercial Communications
Bus & Motor
STARLINK V2MO, Unknown motor
Mass
575 kg wet, ~530 kg dry
Launch date (UTC)
2026-03-04 (4 months ago)
Launch vehicle
FALCON 9
Launch site
Air Force Eastern Test Range (AFETR)
Object type
Payload
Rocket body
Debris
Shape & HBR
Box + 2 Pan, 17.7 m
Radar Cross Section
36.964 m², Large (>1 m²)

Expand to show TLE details & history
Last TLE update: 22 hours ago

TLE from 22 hours ago
0 STARLINK-36972
1 68072U 26042D   26170.94566537  .00029469  00000-0  87953-3 0  9993
2 68072  53.1588  62.1463 0001369  91.4853 268.6307 15.34412731 17984
Epoch: 2026-06-19T22:41Z
TLE epoch observation values (Epoch: 2026-06-19T22:41:45.487Z)
Latitude
-0°
Longitude
173.53941°
Altitude
463.589 km
Speed
7.636 km/s
True Right ascension
04h 08m 35s
True Declination
0° 00' 00"
Sunlit
Object was in daylight at epoch
Visualization orbit readout
Latitude
Unknown
Longitude
Unknown
Altitude
Unknown
Speed
Unknown
Apparent Right ascension
Unknown
Apparent Declination
Unknown
Sunlit
N/A
Visualization observer readout
Local Sidereal Time
07:18:37
Azimuth
Unknown
Elevation
Unknown
Doppler factor
Unknown
Orbital elements
Apogee altitude
463.859 km
Perigee altitude
461.986 km
Semi-major axis
6,841.059 km
Eccentricity
0.00014
Inclination
53.1588°
RAAN
62.1463°
Arg. of periapsis
91.4853°
True anomaly
268.61502°
Mean anomaly
268.6307°
Eccentric anomaly
268.62286°
Mean motion
3.83582 °/min
Orbital period
93.85 mins
BSTAR
0.00087953
Loading maneuver chart data...
Computing Atmospheric mass density...
Loading historical data...
Loading historical data...
Loading historical data...
Loading historical data...
Loading historical data...
Loading historical data...
Loading historical data...

Documentation

Showing up to 5 results
|